Regional Weather Roundup
Issued by NWS

Home | Current Version | Previous Version | Graphics & Text | Print | Product List | Glossary On
Versions: 1 2 3 4 5 6 7 8 9 10 11 12 13 14 15 16 17 18 19 20 21 22 23 24 25 26 27 28 29 30 31 32 33 34 35 36 37 38 39 40 41 42 43 44 45 46 47 48 49 50
000
ASUS45 KPSR 202310
RWRAZ

ARIZONA HOURLY REGIONAL WEATHER ROUNDUP
NATIONAL WEATHER SERVICE PHOENIX AZ
400 PM MST SUN MAY 20 2018

NOTE: FAIR INDICATES FEW OR NO CLOUDS BELOW 12,000 FEET WITH NO
SIGNIFICANT WEATHER AND/OR OBSTRUCTIONS TO VISIBILITY.

AZZ001>003-036-210000-
NORTHWEST ARIZONA

CITY           SKY/WX    TMP DP  RH WIND       PRES   REMARKS
BULLHEAD CITY  MOSUNNY   95  32  11 SE14      29.66F
KINGMAN        CLOUDY    85  25  11 SW24G31   29.84F
$$

AZZ004>008-015-016-018-210000-
NORTH CENTRAL ARIZONA

CITY           SKY/WX    TMP DP  RH WIND       PRES   REMARKS
GRAND CANYON   MOSUNNY   73  12   9 S15G33    30.01F
WILLIAMS       SUNNY     72   9   8 SW16G29   30.01F
PRESCOTT       SUNNY     77  16  10 S12G26    29.96F
FLAGSTAFF      SUNNY     69  16  13 SW15G30   30.06F
PAYSON         SUNNY     79  12   8 S10G22    29.97F
PAGE           PTSUNNY   83  27  13 NW7       29.83F
$$

AZZ009>014-017-210000-
NORTHEAST ARIZONA

CITY           SKY/WX    TMP DP  RH WIND       PRES   REMARKS
WINSLOW        SUNNY     85  16   7 S16G25    29.91F
SAINT JOHNS    SUNNY     84   2   4 W17G35    29.94S
WINDOW ROCK    SUNNY     78   4   5 SW22G31   30.02F
SHOW LOW       SUNNY     77   7   6 SW20G31   30.04F
$$

AZZ540-542>544-546-548-210000-
GREATER PHOENIX AREA

CITY           SKY/WX    TMP DP  RH WIND       PRES   REMARKS
PHOENIX        PTSUNNY   95  19   6 VRB5      29.71F
BUCKEYE        SUNNY     93  16   6 S3        29.74F
LUKE AFB       SUNNY     94  17   6 S12G17    29.72F
DEER VALLEY    SUNNY     92  17   6 VRB7      29.74F
SCOTTSDALE     SUNNY     94  25   8 SE9       29.76F
MESA-FALCON    MOSUNNY   97  25   7 S12G20    29.75F
MESA-GATEWAY   SUNNY     97  21   6 SW15G21   29.76F
CHANDLER       SUNNY     97  16   5 SW12      29.73F
$$

AZZ539-553-210000-
SOUTHWEST MARICOPA COUNTY AND PINAL COUNTY

CITY           SKY/WX    TMP DP  RH WIND       PRES   REMARKS
CASA GRANDE    SUNNY     96  19   6 SW12      29.74F
GILA BEND      FAIR      97  10   4 SW9G22    29.70F
$$

AZZ503-504-507>509-210000-
SOUTHEAST ARIZONA

CITY           SKY/WX    TMP DP  RH WIND       PRES   REMARKS
TUCSON         SUNNY     95  10   4 SW8       29.81F
DAVIS-MONTHAN  SUNNY     97  19   6 SW8       29.80
RYAN FIELD     SUNNY     95   7   4 SW16G24   29.80F
NOGALES        SUNNY     90   8   4 SW14G25   29.91F
SIERRA VISTA   SUNNY     86   3   4 SW12G21   29.95
DOUGLAS        SUNNY     88   9   5 S13       29.91F
SAFFORD        SUNNY     92  -4   2 MISG      29.81F
$$

AZZ532-210000-
SOUTHWEST ARIZONA

CITY           SKY/WX    TMP DP  RH WIND       PRES   REMARKS
YUMA           SUNNY     95  44  17 S13       29.70F
$$

CAZ041-043-047-048-061-525>527-560>570-210000-
SOUTHERN CALIFORNIA

CITY           SKY/WX    TMP DP  RH WIND       PRES   REMARKS
DOWNTOWN L.A.  MOSUNNY   68  55  63 VRB5      29.89
L.A. AIRPORT   PTSUNNY   66  54  65 W12       29.91F
SAN DIEGO      CLOUDY    63  56  78 W9        29.94F
BURBANK        PTSUNNY   69  56  62 S9        29.88F
ONTARIO        MOSUNNY   71  54  54 W12       29.88F
RIVERSIDE      SUNNY     72  53  51 W10       29.88F
PALM SPRINGS   SUNNY     92  47  21 VRB7      29.71F
EL CENTRO NAS  SUNNY     95  39  14 NE6       29.67F
IMPERIAL       MOSUNNY   96  43  16 SE8       29.65F
BLYTHE         SUNNY     95  43  16 S16       29.68F
NEEDLES        PTSUNNY   98  34  10 S15       29.69F
$$

NVZ020-UTZ003-210000-
SOUTHERN NEVADA-UTAH

CITY           SKY/WX    TMP DP  RH WIND       PRES   REMARKS
LAS VEGAS      MOSUNNY   90  35  14 VRB5      29.69F
SALT LAKE CITY CLOUDY    65  49  56 E18       29.91F
$$

NMZ009-TXZ055-210000-
NEW MEXICO-WEST TEXAS

CITY           SKY/WX    TMP DP  RH WIND       PRES   REMARKS
ALBUQUERQUE    MOSUNNY   81  27  14 S10G21    29.99F
EL PASO        MOSUNNY   87  43  21 E10G21    29.92F
$$


........................KEY........................
SKY/WX - SKY CONDITION/WEATHER
TMP    - TEMPERATURE IN FAHRENHEIT
DP     - DEW POINT IN FAHRENHEIT
RH     - RELATIVE HUMIDITY IN PERCENT
WIND   - DIRECTION AND SPEED IN MILES PER HOUR (MPH)
VRB    - VARIABLE WIND DIRECTION
PRES   - MEAN SEA LEVEL PRESSURE IN INCHES OF MERCURY
         F - FALLING PRESSURE   R - RISING PRESSURE
         S - STEADY PRESSURE
VSB    - VISIBILITY IN MILES
HX     - HEAT INDEX IN FAHRENHEIT
WCI    - WIND CHILL INDEX IN FAHRENHEIT
TC     - TEMPERATURE IN CELSIUS WHICH IS ALSO KNOWN AS
         TEMPERATURE IN CENTIGRADE
AFB    - AIR FORCE BASE
         LUKE AFB IS LUKE AIR FORCE BASE
         DAVIS-MONTHAN IS DAVIS-MONTHAN AIR FORCE BASE
NAS    - NAVAL AIR STATION
         EL CENTRO NAS IS EL CENTRO NAVAL AIR STATION
N/A    - NOT AVAILABLE




USA.gov is the U.S. government's official web portal to all federal, state and local government web resources and services.